Location: Brno
(49.2000°N, 16.6330°E)
Time: 01:09:15
(UTC+02:00)

Transit 4A - Pass Details

Date: 27 July 2021
Orbit: 870 x 974 km, 66.8° (Epoch: 26 September)

Event Time Altitude Azimuth Distance (km) Brightness Sun altitude
Rises 08:42:49 0° 324° (NW) 3,468 10.5 31.1°
Reaches altitude 10° 08:45:40 10° 336° (NNW) 2,531 10.0 31.5°
Maximum altitude 08:50:40 29° 35° (NE) 1,572 9.7 32.3°
Drops below altitude 10° 08:55:44 10° 94° (E) 2,555 11.7 33.1°
Sets 08:58:36 0° 106° (ESE) 3,507 12.0 33.6°
